Tracking 19709 objects as of 20-Jun-2019
HD Live streaming from Space Station
objects crossing your sky now

YAOGAN 1 DEB


YAOGAN 1 DEB is no longer on orbit


NORAD ID: 36502
Int'l Code: 2006-015K
Perigee: N/A
Apogee: N/A
Inclination: N/A
Period: N/A
Semi major axis: N/A
RCS: N/A
Launch date: April 26, 2006
Source: People's Republic of China (PRC)
Launch site: Taiyaun Space Center, China (TSC)
Decay date: 2015-03-13

Note: This is SATELLITE DEBRIS
aabbcc
Your satellite tracking list
Your tracking list is empty




NASA's NSSDC Master Catalog

Two Line Element Set (TLE):
1 36502U 06015K   15072.05417027  .10882931  27707-5  45804-2 0  9992
2 36502 097.8954 116.9263 0009770 246.4651 174.7876 16.22880347277916
Source of the keplerian elements: AFSPC